Total_Precipitation_Accumulation
2.22 2.11 2.62 3.57 4.07 3.59 3.17 2.50 2.12 2.02 1.73 1.38 1.08 1.04 1.30 1.69 2.10 2.43 2.64 2.50 1.76 1.40 1.46 2.16 2.71 2.42 1.96 1.67 1.59 1.60 1.53 1.59 1.51 1.44 1.29 1.19 1.06 0.95 0.80 0.70 0.75 0.75 0.70 0.65 0.64 0.73 0.75 0.75 0.91
1.66 2.46 3.23 4.11 3.65 3.01 2.91 2.51 2.27 1.90 1.37 1.11 0.83 0.76 0.88 0.90 0.92 1.42 2.50 2.48 1.60 1.30 1.36 1.61 2.22 2.11 1.72 1.53 1.52 1.61 1.57 1.67 1.59 1.39 1.23 1.10 1.09 1.05 0.95 0.90 0.99 0.79 0.69 0.66 0.68 0.76 0.82 0.79 0.90
1.81 2.88 3.82 4.03 2.90 2.62 2.72 2.55 2.13 1.57 1.12 1.01 0.81 0.74 0.93 1.10 1.13 1.58 2.23 1.81 1.37 1.26 1.32 1.74 2.20 1.99 1.73 1.54 1.58 1.67 1.66 1.67 1.50 1.27 1.07 1.06 1.13 1.14 1.12 1.12 1.07 0.82 0.71 0.65 0.65 0.74 0.79 0.81 0.88
2.11 3.20 3.48 3.24 2.66 2.22 2.21 2.23 1.75 1.42 1.10 0.75 0.72 0.77 0.81 1.15 1.18 1.45 1.52 1.31 1.17 1.25 1.29 1.62 2.05 1.95 1.74 1.56 1.62 1.68 1.73 1.70 1.60 1.34 1.11 1.10 1.14 1.14 1.11 1.15 1.02 0.90 0.81 0.69 0.68 0.74 0.81 0.82 0.85
2.50 3.31 3.28 2.89 2.59 2.21 1.87 1.58 1.36 1.27 1.09 0.81 0.68 0.90 1.20 1.54 1.37 1.30 1.27 1.21 1.06 1.16 1.16 1.32 1.76 1.82 1.68 1.58 1.72 1.79 1.81 1.84 1.78 1.50 1.28 1.19 1.14 1.12 1.15 1.18 1.04 0.97 0.91 0.84 0.83 0.84 0.85 0.83 0.88
2.77 2.90 3.16 2.83 2.53 2.26 2.17 1.59 1.34 1.23 0.95 0.79 0.76 1.00 1.58 1.86 1.58 1.42 1.28 1.33 1.30 1.27 1.16 1.11 1.51 1.66 1.61 1.59 1.66 1.73 1.75 1.75 1.75 1.52 1.31 1.21 1.14 1.09 1.17 1.24 1.11 1.02 0.91 0.86 0.87 0.90 0.94 0.93 0.91
2.70 2.80 2.91 2.43 2.45 2.64 2.31 1.63 1.43 1.20 1.08 0.88 0.71 1.10 1.66 1.95 1.64 1.42 1.37 1.41 1.50 1.45 1.36 1.20 1.26 1.41 1.64 1.71 1.67 1.61 1.55 1.58 1.61 1.38 1.25 1.15 1.09 1.02 1.08 1.14 1.07 1.04 1.02 0.99 0.93 0.98 1.03 0.96 0.96
2.01 2.28 2.42 2.37 2.50 2.72 2.00 1.50 1.17 1.02 0.94 0.72 0.65 1.04 1.46 1.49 1.39 1.38 1.53 1.69 1.83 1.64 1.50 1.26 1.19 1.24 1.29 1.42 1.55 1.61 1.58 1.55 1.54 1.32 1.17 1.09 1.03 0.93 0.98 0.94 0.94 1.01 1.11 1.20 1.15 1.13 1.09 1.08 1.02
1.84 2.43 2.76 2.77 2.50 2.14 1.40 1.25 1.05 0.82 0.85 0.77 0.61 0.66 0.83 0.92 1.07 1.27 1.35 1.49 1.59 1.36 1.27 1.30 1.30 1.30 1.31 1.26 1.33 1.54 1.59 1.56 1.38 1.27 1.16 1.04 0.82 0.71 0.78 0.79 0.98 1.12 1.28 1.36 1.37 1.31 1.26 1.15 1.00
1.90 2.61 2.65 2.10 1.83 1.55 1.12 1.07 0.97 0.95 0.98 0.91 0.70 0.68 0.80 0.86 1.05 1.20 1.13 1.13 1.07 1.00 0.96 1.05 1.13 1.28 1.31 1.18 1.38 1.61 1.44 1.28 1.04 1.05 0.93 0.90 0.83 0.79 0.66 0.74 1.03 1.20 1.27 1.28 1.39 1.47 1.29 1.00 0.74
1.55 2.05 1.87 1.65 1.41 1.20 1.04 1.06 0.92 0.96 1.08 0.94 0.75 0.75 0.93 1.01 1.00 0.96 0.92 0.92 0.86 0.86 0.83 0.82 0.90 1.01 1.11 1.25 1.49 1.76 1.80 1.55 1.32 1.10 1.00 0.97 0.85 0.75 0.69 0.69 0.79 0.91 0.98 0.93 0.98 1.00 0.86 0.76 0.70
1.36 1.33 1.35 1.56 1.29 1.20 1.01 0.99 1.00 0.95 0.98 0.84 0.70 0.71 0.86 1.02 1.04 0.89 0.73 0.68 0.64 0.70 0.80 0.67 0.60 0.77 0.94 1.05 1.18 1.43 1.49 1.41 1.25 1.04 0.95 1.00 0.94 0.82 0.79 0.76 0.82 0.84 0.85 0.95 0.96 1.00 0.94 0.77 0.69
1.65 1.43 1.22 1.20 1.22 1.26 1.06 0.99 0.99 0.96 0.85 0.75 0.71 0.82 0.89 0.88 0.87 0.80 0.66 0.57 0.59 0.70 0.78 0.71 0.61 0.62 0.69 0.76 0.86 0.98 1.15 1.23 1.20 1.13 0.94 0.93 0.92 0.87 0.89 0.84 0.86 0.78 0.77 0.88 0.96 0.99 1.00 0.91 0.77
1.46 1.31 1.29 1.27 1.21 1.20 1.19 0.98 0.98 1.15 0.87 0.78 0.82 0.91 0.87 0.80 0.79 0.84 0.72 0.63 0.58 0.62 0.75 0.75 0.67 0.64 0.67 0.65 0.66 0.67 0.83 0.98 1.10 1.08 0.97 0.97 0.97 0.92 0.96 0.91 0.91 0.88 0.81 0.86 1.06 1.02 1.04 1.02 0.94
1.34 1.49 1.43 1.34 1.25 1.25 1.19 1.27 1.17 1.09 0.92 0.86 0.86 0.84 0.82 0.76 0.75 0.84 0.77 0.65 0.58 0.58 0.64 0.71 0.71 0.73 0.75 0.72 0.71 0.60 0.64 0.73 0.87 0.98 0.97 1.01 0.95 0.87 0.91 0.91 0.88 0.88 0.90 0.93 1.01 1.02 1.07 0.99 0.92
1.63 1.77 1.85 1.56 1.36 1.19 1.21 1.56 1.41 1.16 0.98 0.99 0.93 0.82 0.79 0.74 0.68 0.73 0.72 0.70 0.66 0.65 0.69 0.75 0.78 0.81 0.82 0.82 0.82 0.76 0.81 0.88 0.91 1.03 0.99 0.94 0.97 0.93 0.92 0.95 0.97 1.01 1.05 1.04 1.08 1.13 1.12 1.07 1.07
1.79 1.76 1.61 1.51 1.25 1.05 1.09 1.33 1.34 1.21 0.99 0.87 0.82 0.72 0.64 0.56 0.52 0.51 0.53 0.54 0.59 0.60 0.63 0.67 0.77 0.80 0.81 0.84 0.91 1.03 1.08 1.10 1.08 1.12 1.06 0.96 0.95 0.98 1.07 1.10 1.17 1.14 1.17 1.21 1.18 1.21 1.12 1.13 1.16
1.73 1.42 1.20 1.16 1.10 0.97 0.90 1.00 1.05 1.08 0.94 0.75 0.64 0.56 0.51 0.42 0.39 0.36 0.35 0.37 0.43 0.49 0.53 0.58 0.65 0.82 0.94 0.97 0.97 1.11 1.18 1.26 1.35 1.39 1.28 1.14 1.16 1.28 1.42 1.50 1.44 1.43 1.45 1.46 1.42 1.49 1.38 1.22 1.25
1.27 1.22 1.08 0.92 0.90 0.91 0.83 0.82 0.87 0.86 0.83 0.70 0.55 0.44 0.40 0.34 0.27 0.25 0.23 0.26 0.29 0.33 0.40 0.46 0.52 0.70 0.82 0.88 0.98 1.16 1.34 1.52 1.67 1.77 1.66 1.53 1.48 1.65 1.78 1.71 1.79 1.83 1.71 1.72 1.78 1.84 1.79 1.57 1.43
1.10 1.12 0.99 0.84 0.72 0.72 0.72 0.74 0.77 0.73 0.72 0.60 0.47 0.39 0.31 0.24 0.22 0.18 0.14 0.15 0.19 0.22 0.26 0.32 0.39 0.49 0.62 0.78 1.01 1.21 1.50 1.60 1.68 1.80 1.84 1.78 1.72 1.88 1.92 2.01 2.10 2.15 2.14 2.09 1.99 2.09 2.19 1.94 1.70
0.91 0.96 0.88 0.80 0.68 0.63 0.61 0.76 0.75 0.68 0.64 0.56 0.43 0.34 0.25 0.19 0.17 0.13 0.11 0.11 0.16 0.17 0.19 0.26 0.38 0.50 0.71 0.95 1.26 1.55 1.79 1.87 1.92 1.86 1.91 1.99 2.04 2.11 2.14 2.19 2.27 2.30 2.16 2.16 2.25 2.37 2.72 2.53 2.16
0.87 0.66 0.59 0.58 0.66 0.66 0.59 0.84 0.65 0.55 0.55 0.49 0.41 0.37 0.29 0.20 0.16 0.13 0.12 0.12 0.13 0.17 0.22 0.34 0.51 0.70 0.96 1.29 1.64 1.88 2.11 2.22 2.07 2.04 2.07 2.07 2.02 2.05 2.16 2.17 2.17 2.16 2.10 2.18 2.25 2.30 2.69 2.88 2.60
0.58 0.50 0.58 0.59 0.57 0.50 0.40 0.55 0.54 0.46 0.51 0.42 0.34 0.34 0.33 0.27 0.20 0.18 0.18 0.19 0.22 0.30 0.37 0.53 0.78 1.08 1.36 1.59 1.77 1.97 2.09 2.12 2.10 2.06 2.05 1.97 1.94 1.91 1.94 1.96 2.06 2.10 2.14 2.20 2.36 2.49 2.73 2.76 2.75
0.41 0.49 0.62 0.63 0.62 0.64 0.35 0.43 0.53 0.44 0.42 0.37 0.33 0.30 0.27 0.25 0.24 0.25 0.27 0.34 0.41 0.46 0.60 0.78 0.97 1.26 1.44 1.55 1.66 1.83 1.98 2.03 2.04 2.02 2.02 2.02 1.99 1.89 1.83 1.80 1.87 2.00 2.16 2.21 2.31 2.45 2.69 2.80 2.89
0.40 0.66 0.93 0.97 0.92 0.69 0.34 0.50 0.59 0.45 0.35 0.32 0.32 0.31 0.27 0.31 0.35 0.35 0.43 0.56 0.65 0.69 0.78 0.93 1.03 1.21 1.32 1.36 1.43 1.57 1.64 1.70 1.76 1.74 1.71 1.65 1.62 1.62 1.66 1.74 1.82 1.95 2.06 2.13 2.25 2.40 2.45 2.56 2.80
0.36 0.56 0.93 1.01 0.87 0.63 0.47 0.71 0.66 0.44 0.35 0.33 0.33 0.31 0.33 0.44 0.53 0.62 0.74 0.83 0.90 0.90 0.88 0.91 1.05 1.10 1.08 1.10 1.10 1.23 1.31 1.37 1.43 1.43 1.42 1.46 1.51 1.54 1.49 1.53 1.61 1.82 2.01 2.09 2.19 2.21 2.18 2.23 2.42
0.35 0.39 0.46 0.66 0.61 0.64 0.61 0.80 0.75 0.45 0.39 0.34 0.34 0.36 0.42 0.58 0.77 0.98 1.15 1.25 1.32 1.24 1.05 0.92 0.93 0.93 0.90 0.96 0.99 1.06 1.14 1.18 1.21 1.24 1.19 1.28 1.34 1.34 1.30 1.33 1.36 1.47 1.68 1.93 2.09 2.04 1.95 1.91 2.07
0.30 0.40 0.51 0.76 0.93 0.89 0.80 0.93 0.92 0.65 0.53 0.45 0.46 0.56 0.70 0.91 1.19 1.45 1.67 1.78 1.75 1.57 1.31 1.04 0.87 0.84 0.81 0.84 0.90 0.96 1.00 1.00 0.99 1.02 0.97 1.02 1.12 1.12 1.12 1.12 1.19 1.33 1.45 1.64 1.87 1.96 1.89 1.87 1.93
0.33 0.47 0.59 0.75 0.83 1.04 1.17 1.20 0.97 0.87 0.76 0.73 0.80 0.96 1.16 1.43 1.62 1.77 1.92 1.96 1.70 1.53 1.29 1.03 0.87 0.89 0.90 0.92 0.93 0.92 0.88 0.86 0.84 0.82 0.79 0.84 0.91 0.91 0.94 1.11 1.18 1.24 1.32 1.51 1.77 1.95 1.96 1.89 1.88
0.44 0.65 0.84 1.15 1.07 1.02 1.23 1.29 0.93 0.86 0.90 0.93 1.04 1.10 1.22 1.37 1.38 1.46 1.54 1.50 1.46 1.40 1.23 1.06 0.96 0.97 1.01 1.03 1.05 0.97 0.87 0.81 0.78 0.75 0.68 0.69 0.67 0.66 0.78 0.92 0.97 1.02 1.06 1.24 1.53 1.73 1.78 1.76 1.67